Regional Weather Roundup
Issued by NWS

Home | Current Version | Previous Version | Graphics & Text | Print | Product List | Glossary On
Versions: 1 2 3 4 5 6 7 8 9 10 11 12 13 14 15 16 17 18 19 20 21 22 23 24 25 26 27 28 29 30 31 32 33 34 35 36 37 38 39 40 41 42 43 44 45 46 47 48 49 50
000
ASUS43 KIND 022359
RWRIN

WEATHER ROUNDUP FOR INDIANA
NATIONAL WEATHER SERVICE INDIANAPOLIS IN
800 PM EDT TUE JUN 02 2015

NOTE: "FAIR" INDICATES FEW OR NO CLOUDS BELOW 12,000 FEET WITH NO
SIGNIFICANT WEATHER AND/OR OBSTRUCTIONS TO VISIBILITY.

* - STATION DOES NOT REPORT WEATHER SUCH AS PRECIPITATION OR FOG.

+ - STATION NOT QUALITY CONTROLLED BY THE NATIONAL WEATHER SERVICE.
    USE DATA WITH CAUTION...ESPECIALLY DEWPOINT AND RELATIVE
    HUMIDITY OBSERVATIONS.

INZ001>003-010>013-019-020-030100-
NORTHWEST INDIANA

CITY           SKY/WX    TMP DP  RH WIND       PRES   REMARKS
GARY /AIRPORT/ PTSUNNY   63  46  55 NE10      30.10F
RENSSELAER +   SUNNY     70  52  52 E9        30.09R

$$

LMZ046-743>745-030100-
SOUTHERN LAKE MICHIGAN

STATION/POSITION TIME  TEMP    WIND        PRES    WAVE
                       AIR SEA DIR/SP/G            HT
                 (UTC) (F)     (DEG/KT/KT) (MB)    (FT)
BURNS HARBOR     2300           50/  9/ 12 1019.6S
MICHIGAN CITY    2300   55      20/ 11/ 13   N/A
5NW MICH CITY    2300   54 56   70/ 10/ 12   N/A     1

$$

INZ004-005-014>016-021>024-030100-
NORTH CENTRAL INDIANA

CITY           SKY/WX    TMP DP  RH WIND       PRES   REMARKS
ELKHART        SUNNY     68  48  49 SE8       30.10S
GOSHEN         SUNNY     69  51  52 SE9       30.10S
6HR MIN TEMP:  68; 6HR MAX TEMP:  72;

SOUTH BEND     SUNNY     71  49  45 SE7       30.10R
6HR MIN TEMP:  68; 6HR MAX TEMP:  73;


$$

INZ006>009-017-018-025>027-030100-
NORTHEAST INDIANA

CITY           SKY/WX    TMP DP  RH WIND       PRES   REMARKS
ANGOLA *+      SUNNY     68  59  73 E8        30.11S
FORT WAYNE     MOSUNNY   66  51  58 E14       30.11S
6HR MIN TEMP:  64; 6HR MAX TEMP:  69;


$$

INZ028-029-035-036-043>045-051>053-030100-
WEST CENTRAL INDIANA

CITY           SKY/WX    TMP DP  RH WIND       PRES   REMARKS
CRAWFORDSVL +  SUNNY     65  49  56 E8        30.08R
6HR MIN TEMP:  64; 6HR MAX TEMP:  69;

GREENCASTLE +  SUNNY     68  50  52 E8        30.07R
LAFAYETTE      SUNNY     64  53  67 E10       30.08R
6HR MIN TEMP:  64; 6HR MAX TEMP:  70;

TERRE HAUTE    SUNNY     71  54  54 E6        30.05S
6HR MIN TEMP:  69; 6HR MAX TEMP:  74;


$$

INZ030>032-037>040-046>048-054>057-064-065-030100-
CENTRAL INDIANA

CITY           SKY/WX    TMP DP  RH WIND       PRES   REMARKS
GREENWOOD *+   CLOUDY    63  50  63 NE10      30.10R
INDIANAPOLIS   MOSUNNY   63  51  65 E13       30.07S
6HR MIN TEMP:  63; 6HR MAX TEMP:  70;

-EAGLE CREEK   SUNNY     63  52  67 E6        30.09R
6HR MIN TEMP:  63; 6HR MAX TEMP:  70;

KOKOMO *+      MOSUNNY   64  54  68 E7        30.10R
6HR MIN TEMP:  64; 6HR MAX TEMP:  66;

MT COMFORT *+  CLOUDY    63  46  55 E8        30.10R
SHELBYVILLE    CLOUDY    64  53  67 NE6       30.09R
6HR MIN TEMP:  63; 6HR MAX TEMP:  65;


$$

INZ033-034-041-042-049-050-058-059-030100-
EAST CENTRAL INDIANA

CITY           SKY/WX    TMP DP  RH WIND       PRES   REMARKS
MUNCIE         CLOUDY    65  54  67 E8        30.10R
6HR MIN TEMP:  59; 6HR MAX TEMP:  66;


$$

INZ060-061-067>069-081>083-085>088-030100-
SOUTHWEST INDIANA

CITY           SKY/WX    TMP DP  RH WIND       PRES   REMARKS
EVANSVILLE     SUNNY     67  56  67 NW3       30.07S
6HR MIN TEMP:  63; 6HR MAX TEMP:  67;

HUNTINGBURG *+ MOSUNNY   70  55  60 SE3       30.06R
6HR MIN TEMP:  63; 6HR MAX TEMP:  70;


$$

INZ062-063-066-070>080-084-089>092-030100-
SOUTH CENTRAL AND SOUTHEAST INDIANA

CITY           SKY/WX    TMP DP  RH WIND       PRES   REMARKS
BLOOMINGTON    SUNNY     67  55  65 E9        30.07R
6HR MIN TEMP:  67; 6HR MAX TEMP:  72;

MADISON *+     CLOUDY    61  52  72 NE5       30.11R
SEYMOUR +      MOSUNNY   64  54  68 NE8       30.08R

$$




USA.gov is the U.S. government's official web portal to all federal, state and local government web resources and services.